Location: Sungai Bunut
(2.6333°N, 113.7333°E)
Time: 01:38:04
(UTC+00:00)

Vanguard 3 - Pass Details

Date: 08 December 2023
Orbit: 508 x 3239 km, 33.4° (Epoch: 24 February)

Event Time Altitude Azimuth Distance (km) Brightness Sun altitude
Rises 10:49:15 0° 244° (WSW) 7,080 14.4 -8.5°
Reaches altitude 10° 10:54:02 10° 248° (WSW) 6,152 13.3 -9.6°
Maximum altitude 11:13:26 59° 323° (NW) 3,234 10.2 -14.1°
Enters shadow 11:26:33 14° 38° (NE) 4,429 10.4 -17.1°
Drops below altitude 10° 11:27:45 10° 40° (NE) 4,673 - -17.4°
Sets 11:30:52 0° 45° (NE) 5,358 - -18.1°
